Regional Weather Roundup
Issued by NWS Sioux Falls, SD

Home | Current Version | Previous Version | Graphics & Text | Print | Product List | Glossary Off
Versions: 1 2 3 4 5 6 7 8 9 10 11 12 13 14 15 16 17 18 19 20 21 22 23 24 25 26 27 28 29 30 31 32 33 34 35 36 37 38 39 40 41 42 43 44 45 46 47 48 49 50

000
ASUS43 KFSD 271310
RWRFSD

WEATHER ROUNDUP FOR SE SOUTH DAKOTA/SW MINNESOTA/NW IOWA
NATIONAL WEATHER SERVICE SIOUX FALLS SD
800 AM CDT TUE JUN 27 2017

NOTE: "FAIR" INDICATES FEW OR NO CLOUDS BELOW 12,000 FEET WITH NO
SIGNIFICANT WEATHER AND OR OBSTRUCTIONS TO VISIBILITY.


SDZ038>040-050-052>070-271400-
SOUTHEAST SOUTH DAKOTA

CITY           SKY/WX    TMP DP  RH WIND       PRES   REMARKS
BROOKINGS      SUNNY     55  43  63 S12       30.06F
CHAMBERLAIN    SUNNY     63  49  61 SE13G20   29.96F
HURON          PTSUNNY   54  44  69 S14       29.99F
MADISON        FAIR      55  46  71 S12       30.05F
MITCHELL       MOSUNNY   57  45  64 S10       30.02F
SIOUX FALLS    MOSUNNY   60  46  59 S12G21    30.06F
WINNER         FAIR      64  54  69 S26G37    29.93F
YANKTON        SUNNY     59  48  67 S13       30.05F
$$

MNZ071-072-080-081-089-090-097-098-271400-
SOUTHWEST MINNESOTA

CITY           SKY/WX    TMP DP  RH WIND       PRES   REMARKS
FAIRMONT       SUNNY     59  47  64 S7        30.12S
JACKSON        SUNNY     57  43  58 S9        30.12S
LUVERNE        SUNNY     52  43  71 S7        30.09F
MARSHALL       SUNNY     61  44  53 S12       30.07F
MONTEVIDEO     SUNNY     59  46  63 SW7       30.06F
PIPESTONE      SUNNY     57  43  58 S10       30.07F
REDWOOD FALLS  SUNNY     60  43  53 S8        30.08F
TRACY          SUNNY     60  44  56 S9        30.09S
WINDOM         SUNNY     59  45  58 S7        30.10F
WORTHINGTON    SUNNY     59  44  57 S8        30.11F
$$

IAZ001>003-012>014-020>022-031-032-NEZ013-014-SDZ071-271400-
NORTHWEST IOWA

CITY           SKY/WX    TMP DP  RH WIND       PRES   REMARKS
CHEROKEE       SUNNY     55  48  78 CALM      30.11F
DENISON        SUNNY     61  48  63 S8        30.13F
ESTHERVILLE    SUNNY     57  48  72 S6        30.12S
LE MARS        MOSUNNY   59  46  63 S6        30.10S
ORANGE CITY    MOSUNNY   59  45  58 S5        30.09F
SHELDON        SUNNY     59  45  58 S8        30.08F
SIOUX CITY     SUNNY     55  49  80 SE7       30.09S
SPENCER        SUNNY     60  44  55 S12       30.11F
STORM LAKE     SUNNY     57  45  62 S8        30.12S
$$

ABBREVIATIONS USED IN REMARKS
   TC - TEMPERATURE IN CELSIUS
  WCI - WIND CHILL INDEX
   HX - HEAT INDEX
  VSB - VISIBILITY





USA.gov is the U.S. government's official web portal to all federal, state and local government web resources and services.